Vorticity
7 6 -2 3 5 4 6 7 6 10 7 10 4 7 11 3 4 2 -4 2 2 6 7 4 3 8 5 3 10 6 7 11 8 14 8 9 5 6 7 3 5 3 5 6 7
3 5 3 3 6 9 7 7 14 4 8 5 8 6 1 0 -10 -4 5 5 7 2 2 9 10 6 9 9 1 -1 6 2 7 11 15 4 4 2 9 5 5 3 5 5 6
5 3 4 7 7 5 7 10 7 6 13 7 6 11 7 4 1 4 -5 2 2 3 -2 -1 4 6 6 8 11 11 5 19 13 12 10 12 6 4 8 7 5 5 2 6 4
5 5 7 8 4 10 2 9 10 8 5 10 5 10 5 7 4 18 16 14 12 10 8 5 11 13 14 11 12 13 14 11 14 16 5 9 10 9 6 12 7 4 5 4 5
5 9 6 4 6 10 12 6 8 8 10 11 10 9 7 7 6 10 5 4 7 4 2 8 18 26 25 24 25 21 13 18 15 16 11 9 12 6 6 11 8 5 3 7 8
6 6 3 6 6 7 3 8 2 9 9 8 7 -3 3 6 5 6 0 3 2 12 31 38 36 31 23 24 19 34 26 19 13 13 5 11 8 10 8 2 11 11 3 5 5
6 10 7 3 9 3 5 3 9 9 7 5 5 4 3 7 5 -1 13 23 37 19 36 43 33 27 25 25 36 17 17 18 11 13 12 8 11 7 8 4 5 7 10 4 4
8 4 4 4 5 10 5 6 6 15 1 10 6 2 6 -6 11 16 21 24 44 34 27 20 16 21 20 11 11 11 19 17 14 11 13 12 15 12 6 7 4 6 10 9 4
3 6 7 6 7 9 9 7 8 7 6 9 1 5 -3 13 11 26 36 41 25 23 22 16 19 22 19 17 15 8 12 8 13 13 16 13 21 13 12 3 4 5 9 11 8
11 2 2 4 3 -0 14 6 8 5 6 2 6 -2 9 10 38 25 35 29 27 18 15 19 16 24 22 19 -4 -1 33 12 13 8 17 14 24 24 20 6 7 3 7 9 9
2 6 -2 4 7 6 10 9 10 -0 6 2 -1 7 7 26 37 36 37 18 17 20 22 27 21 31 32 16 26 10 20 24 19 7 10 7 11 26 24 10 7 8 1 7 11
3 0 2 0 8 8 9 9 13 9 2 -4 8 5 29 43 46 29 19 16 13 14 19 17 11 17 25 25 -14 0 11 1 40 16 26 18 13 13 29 23 3 9 4 7 13
7 8 0 3 9 5 9 11 11 2 1 12 6 18 30 52 36 14 13 10 12 30 13 18 13 15 13 31 19 17 6 7 10 -7 11 15 17 7 24 25 15 7 8 -1 8
7 8 7 7 8 7 11 13 4 2 -3 -9 15 21 38 40 20 17 8 20 3 4 5 12 14 13 29 28 -33 23 20 -1 -8 28 5 3 14 8 10 28 27 9 7 4 10
4 4 5 5 10 6 13 9 1 3 3 -1 12 30 41 29 16 14 12 14 17 -4 -0 4 11 15 23 35 17 0 7 11 18 -5 11 7 7 10 14 15 21 28 11 5 5
1 7 5 7 10 8 15 4 -0 1 13 10 22 45 37 24 8 13 3 10 28 6 16 15 21 27 22 54 15 27 31 6 28 22 14 11 13 9 19 7 21 23 19 6 9
8 2 7 10 5 13 9 2 2 4 1 12 29 58 24 18 2 15 -3 18 10 11 -3 11 23 18 6 -1 7 12 3 21 -6 -12 -7 5 10 4 23 11 13 24 26 10 9
10 8 6 10 6 12 7 1 1 2 9 18 56 40 17 13 5 14 12 1 18 -4 -4 2 14 14 5 9 15 19 18 -11 -7 33 5 21 7 12 6 7 18 21 20 15 7
6 9 9 4 8 11 8 2 2 3 10 30 41 29 10 12 2 11 4 16 6 9 6 -5 12 17 26 7 16 14 17 20 11 6 6 10 12 10 17 15 14 20 14 12 14
7 6 7 6 9 8 6 0 4 6 16 35 42 29 13 4 10 5 13 7 11 6 5 -2 6 4 20 13 13 20 13 8 -3 14 18 30 28 10 13 15 16 15 14 14 12
7 7 6 5 8 9 5 4 4 8 20 41 41 20 17 2 5 5 16 7 12 5 15 -5 6 11 15 20 19 8 4 9 7 -1 -1 8 -6 18 12 8 8 13 11 13 12
8 7 8 6 8 9 5 2 4 11 20 37 37 17 18 5 4 11 5 14 16 2 22 15 6 18 13 1 9 1 21 14 10 14 8 0 38 21 13 27 21 5 17 8 11
9 5 9 4 7 8 3 5 4 14 25 33 38 15 15 9 8 5 10 9 22 16 11 9 2 18 9 12 14 20 8 18 -15 21 6 7 1 21 23 16 15 15 10 14 13
14 5 6 14 8 7 5 4 5 14 28 30 36 13 7 14 16 -0 4 12 14 11 9 16 3 1 -8 19 12 1 -1 11 7 -2 7 20 2 12 13 16 14 13 14 11 7
10 7 4 6 10 6 5 6 8 20 36 25 29 9 6 11 19 8 9 6 21 10 12 13 16 6 2 2 9 15 -1 9 10 11 4 14 8 10 11 8 13 10 7 6 7
2 11 7 12 6 7 5 6 11 26 34 20 26 11 5 9 9 19 6 6 2 24 9 5 0 24 16 8 15 6 17 7 11 12 11 11 11 12 9 10 9 12 15 15 14
4 7 10 11 7 6 5 3 10 36 33 17 19 20 13 6 7 11 21 10 2 22 14 14 6 5 11 9 8 12 13 14 10 12 11 6 12 12 12 13 14 11 10 10 10
Height
5793 5790 5786 5783 5779 5776 5772 5769 5766 5762 5757 5753 5749 5746 5741 5737 5733 5728 5724 5720 5716 5713 5711 5708 5708 5706 5703 5707 5707 5707 5710 5718 5725 5725 5730 5737 5735 5738 5748 5748 5750 5759 5759 5773 5772
5788 5785 5782 5778 5774 5770 5766 5762 5757 5754 5749 5744 5739 5735 5730 5725 5721 5717 5710 5706 5701 5696 5693 5689 5688 5687 5687 5690 5689 5688 5695 5707 5710 5713 5715 5721 5723 5726 5738 5737 5742 5750 5753 5763 5763
5784 5781 5777 5773 5769 5764 5759 5755 5749 5744 5739 5734 5730 5725 5720 5713 5708 5704 5696 5689 5684 5678 5674 5669 5667 5664 5667 5669 5672 5673 5681 5688 5691 5697 5697 5702 5711 5715 5725 5727 5733 5741 5746 5753 5756
5778 5774 5770 5767 5762 5757 5752 5747 5742 5736 5731 5724 5718 5713 5707 5700 5691 5685 5680 5673 5664 5660 5655 5647 5644 5641 5641 5646 5652 5645 5662 5669 5672 5678 5679 5688 5700 5706 5714 5718 5721 5729 5738 5744 5747
5772 5768 5764 5760 5755 5750 5744 5739 5733 5727 5721 5714 5707 5700 5694 5686 5679 5667 5660 5653 5643 5634 5629 5621 5618 5616 5615 5622 5625 5624 5645 5647 5652 5657 5663 5673 5684 5693 5701 5708 5709 5719 5732 5734 5740
5767 5762 5758 5754 5748 5743 5737 5731 5723 5717 5710 5702 5695 5687 5679 5670 5660 5650 5639 5626 5617 5608 5601 5596 5592 5592 5592 5598 5601 5613 5620 5625 5632 5638 5645 5657 5670 5677 5688 5698 5697 5709 5718 5723 5730
5762 5757 5752 5747 5741 5735 5729 5722 5714 5707 5700 5690 5683 5674 5663 5652 5637 5627 5613 5595 5582 5577 5574 5571 5568 5571 5577 5580 5588 5594 5600 5606 5613 5619 5630 5638 5653 5663 5673 5682 5688 5696 5704 5712 5720
5756 5751 5746 5740 5734 5727 5721 5714 5706 5698 5690 5678 5669 5659 5648 5631 5615 5597 5582 5571 5559 5554 5554 5555 5554 5557 5562 5570 5573 5580 5590 5590 5602 5612 5622 5626 5641 5653 5661 5669 5678 5683 5692 5701 5709
5749 5744 5739 5733 5726 5719 5712 5704 5696 5687 5677 5665 5655 5645 5629 5612 5593 5574 5557 5551 5544 5541 5541 5541 5542 5546 5551 5559 5565 5568 5575 5582 5594 5603 5609 5613 5627 5641 5646 5657 5665 5672 5681 5691 5698
5743 5737 5732 5725 5718 5710 5703 5695 5686 5678 5665 5651 5640 5624 5606 5588 5568 5552 5544 5537 5533 5532 5531 5531 5532 5536 5542 5548 5553 5561 5569 5576 5585 5593 5599 5605 5620 5632 5633 5643 5652 5661 5670 5680 5688
5736 5730 5724 5716 5708 5700 5694 5686 5679 5668 5653 5639 5624 5603 5586 5568 5548 5537 5534 5530 5527 5526 5524 5524 5525 5529 5535 5542 5553 5559 5566 5573 5581 5588 5593 5602 5614 5619 5620 5632 5640 5649 5660 5670 5678
5730 5723 5716 5708 5699 5690 5681 5671 5662 5653 5645 5627 5610 5589 5568 5550 5540 5531 5529 5527 5525 5523 5522 5522 5524 5526 5530 5536 5543 5552 5562 5569 5576 5584 5589 5596 5605 5610 5613 5624 5634 5639 5652 5660 5670
5722 5716 5709 5700 5691 5681 5671 5661 5649 5638 5626 5612 5595 5576 5555 5541 5532 5529 5528 5525 5523 5520 5520 5521 5523 5524 5527 5532 5540 5550 5558 5566 5573 5580 5585 5589 5596 5602 5608 5615 5620 5630 5643 5652 5660
5715 5708 5701 5692 5684 5673 5662 5651 5640 5627 5613 5593 5577 5556 5546 5536 5531 5529 5526 5525 5522 5522 5521 5523 5523 5523 5524 5529 5535 5545 5553 5558 5567 5574 5580 5586 5592 5595 5601 5605 5615 5626 5634 5645 5652
5708 5700 5692 5682 5674 5665 5655 5643 5631 5618 5601 5586 5570 5552 5538 5534 5531 5530 5527 5525 5523 5524 5524 5524 5522 5524 5523 5529 5536 5546 5551 5559 5562 5569 5575 5581 5585 5592 5596 5599 5608 5616 5626 5636 5645
5701 5693 5684 5675 5664 5656 5645 5634 5623 5614 5597 5582 5559 5546 5538 5534 5532 5530 5528 5526 5524 5525 5525 5524 5524 5525 5525 5529 5537 5543 5549 5557 5563 5563 5570 5576 5582 5587 5591 5598 5600 5607 5618 5629 5637
5694 5686 5676 5668 5659 5648 5637 5628 5617 5604 5587 5574 5558 5543 5537 5535 5533 5530 5529 5527 5526 5526 5526 5526 5525 5526 5528 5532 5538 5543 5549 5554 5558 5561 5568 5572 5577 5581 5586 5591 5595 5603 5613 5622 5629
5686 5677 5670 5661 5651 5640 5631 5621 5610 5595 5577 5558 5548 5540 5538 5536 5533 5531 5530 5529 5528 5528 5528 5529 5527 5528 5531 5534 5539 5544 5549 5553 5557 5560 5566 5570 5574 5578 5582 5585 5590 5598 5606 5611 5621
5678 5670 5662 5653 5643 5633 5624 5614 5604 5590 5575 5558 5545 5539 5537 5535 5533 5532 5531 5531 5531 5530 5531 5529 5530 5529 5531 5536 5540 5544 5548 5554 5558 5561 5565 5569 5572 5574 5578 5582 5587 5594 5599 5606 5614
5672 5663 5654 5646 5636 5627 5618 5608 5597 5583 5565 5551 5543 5538 5536 5535 5534 5533 5532 5532 5532 5532 5532 5532 5532 5533 5534 5536 5540 5544 5549 5554 5558 5562 5564 5565 5567 5570 5574 5578 5583 5589 5595 5602 5609
5664 5656 5648 5639 5630 5622 5613 5603 5590 5577 5563 5551 5542 5536 5535 5535 5534 5533 5533 5532 5532 5532 5532 5533 5534 5536 5537 5538 5541 5546 5549 5553 5557 5560 5562 5564 5567 5568 5572 5575 5580 5585 5591 5597 5604
5657 5649 5641 5633 5626 5616 5608 5598 5586 5571 5557 5546 5540 5536 5535 5535 5534 5533 5532 5532 5532 5533 5532 5534 5535 5535 5537 5539 5542 5546 5549 5551 5556 5560 5562 5563 5564 5565 5569 5572 5576 5582 5587 5593 5600
5650 5643 5635 5628 5619 5612 5602 5593 5581 5566 5553 5542 5539 5535 5535 5535 5535 5534 5533 5532 5532 5533 5533 5534 5536 5536 5538 5541 5543 5545 5548 5551 5554 5557 5560 5562 5565 5564 5567 5570 5574 5579 5584 5590 5595
5645 5637 5630 5621 5614 5606 5598 5588 5576 5562 5549 5540 5537 5534 5535 5535 5534 5534 5533 5533 5532 5533 5533 5534 5536 5537 5539 5541 5543 5545 5548 5551 5554 5557 5559 5561 5564 5565 5567 5570 5573 5577 5582 5587 5592
5637 5631 5623 5616 5609 5601 5593 5584 5571 5559 5548 5540 5536 5533 5535 5535 5533 5533 5533 5533 5532 5533 5533 5534 5535 5537 5539 5540 5542 5545 5548 5550 5553 5556 5557 5560 5562 5564 5566 5569 5572 5576 5580 5584 5588
5631 5625 5618 5611 5604 5596 5588 5578 5566 5556 5546 5540 5537 5533 5534 5534 5533 5532 5532 5533 5532 5532 5533 5534 5534 5535 5537 5540 5541 5544 5546 5549 5552 5554 5556 5558 5560 5563 5566 5568 5572 5575 5578 5582 5585
5623 5618 5611 5605 5598 5591 5584 5573 5561 5551 5544 5540 5538 5534 5533 5533 5532 5530 5530 5532 5532 5531 5531 5532 5534 5535 5536 5539 5541 5544 5545 5548 5550 5552 5554 5556 5560 5562 5565 5568 5571 5574 5576 5579 5582